Content
SEND FEEDBACK

Daily
Averages
Monthly
Summary
Czech Republic

CHEB, CZECH REPUBLIC


Home > Europe > Czech Republic
Elevation: 1545 feet     Latitude: 50 05N     Longitude: 012 24E

WEATHER
 
SELECT A DAY
Number of Records: 79,685;   Date Range: 6/5/97 - 8/10/14
 
SHARE

PRINT THIS DATA

[ ← Previous Day ]
WEATHER ALMANAC - APRIL 7, 2013
[ Next Day → ]
[ °C ]   °F
Weather ElementAverageHighLow
Temperature33.4 °F39.2 °F (2:30 pm)24.8 °F (11:00 pm)
Dewpoint19.8 °F26.6 °F (1:00 am)10.4 °F (4:00 pm)
Humidity60.7 %86 % (1:00 am)31 % (4:00 pm)
Barometer30.04 in30.09 in (9:30 am)29.98 in (10:00 pm)
Wind Speed4.7 mph9.2 mph (1:00 pm)
Weather ElementAverage
Visibility6.2 mi
Wind DirectionESE (126.6 °)

Weather ElementTotal
Precipitation---
Heating Degree Days33 (Base 65)
Averaged from 38 records on April 7, 2013
WEATHER CONDITIONS BREAKOUT
WIND DIRECTION BREAKOUT
WEATHER BY HOUR - APRIL 7, 2013
[ °C ]   °F
Local TimeTemperatureDewpointHumidityBarometerVisibilityWind DirectionWind SpeedGust SpeedPrecipitationEventsConditions
1:00 AM30.2 °F26.6 °F86 %30.06 in6.2 miWest (270°)2.3 mphSnowLight Snow
2:00 AM30.2 °F26.6 °F86 %30.06 in6.2 miWSW (250°)2.3 mphOvercast
3:00 AM30.2 °F26.6 °F86 %30.06 in6.2 miWest (270°)3.5 mphOvercast
4:00 AM30.2 °F24.8 °F80 %30.06 in6.2 miNW (310°)3.5 mphOvercast
5:00 AM28.4 °F24.8 °F86 %30.04 in6.2 miNNW (330°)4.6 mphOvercast
5:05 AM28.4 °F24.8 °F86 %30.04 in6.2 miNNW (340°)4.6 mphSnowLight Snow
6:00 AM28.4 °F24.8 °F86 %30.06 in6.2 miNNW (340°)2.3 mphSnowLight Snow
7:00 AM28.4 °F24.8 °F86 %30.06 in6.2 miNNW (340°)3.5 mphSnowLight Snow Grains
7:30 AM28.4 °F24.8 °F86 %30.06 in6.2 miVariable2.3 mphSnowLight Snow Grains
8:00 AM28.4 °F24.8 °F86 %30.06 in6.2 miNE (50°)3.5 mphSnowLight Snow Grains
8:30 AM30.2 °F24.8 °F80 %30.06 in6.2 miVariable2.3 mphScattered Clouds
9:00 AM30.2 °F23.0 °F75 %30.06 in6.2 miVariable2.3 mphMostly Cloudy
9:30 AM32.0 °F24.8 °F75 %30.09 in6.2 miNNE (30°)3.5 mphMostly Cloudy
10:00 AM32.0 °F23.0 °F69 %30.09 in6.2 miNNE (30°)4.6 mphMostly Cloudy
10:30 AM32.0 °F23.0 °F69 %30.09 in6.2 miNE (50°)5.8 mphMostly Cloudy
11:00 AM32.0 °F23.0 °F69 %30.09 in6.2 miNNW (330°)5.8 mphMostly Cloudy
11:30 AM32.0 °F23.0 °F69 %30.09 in6.2 miVariable4.6 mphMostly Cloudy
12:00 PM33.8 °F21.2 °F60 %30.09 in6.2 miVariable4.6 mphMostly Cloudy
12:30 PM35.6 °F19.4 °F52 %30.06 in6.2 miNNW (340°)5.8 mphMostly Cloudy
1:00 PM35.6 °F15.8 °F44 %30.06 in6.2 miNNW (330°)9.2 mphScattered Clouds
1:30 PM37.4 °F15.8 °F41 %30.06 in6.2 miVariable4.6 mphScattered Clouds
2:00 PM37.4 °F15.8 °F41 %30.04 in6.2 miVariable8.1 mphScattered Clouds
2:30 PM39.2 °F17.6 °F42 %30.04 in6.2 miVariable3.5 mphPartly Cloudy
3:00 PM39.2 °F15.8 °F39 %30.04 in6.2 miVariable5.8 mphPartly Cloudy
3:30 PM39.2 °F14.0 °F36 %30.04 in6.2 miNorth (350°)6.9 mphPartly Cloudy
4:00 PM39.2 °F10.4 °F31 %30.04 inNorth (10°)6.9 mphClear
4:30 PM39.2 °F14.0 °F36 %30.01 inNorth (360°)6.9 mphClear
5:00 PM39.2 °F15.8 °F39 %30.01 inNNE (20°)5.8 mphClear
5:30 PM39.2 °F14.0 °F36 %30.01 inVariable5.8 mphClear
6:00 PM39.2 °F14.0 °F36 %30.01 inENE (60°)8.1 mphClear
6:30 PM39.2 °F15.8 °F39 %30.01 inNNE (20°)4.6 mphClear
7:00 PM37.4 °F15.8 °F41 %30.01 inNorth (10°)5.8 mphClear
7:30 PM35.6 °F15.8 °F44 %30.01 inNNE (30°)4.6 mphClear
8:00 PM33.8 °F15.8 °F48 %30.01 inNE (40°)3.5 mphClear
8:30 PM32.0 °F15.8 °F51 %30.01 inNE (40°)5.8 mphClear
9:00 PM32.0 °F17.6 °F55 %30.01 inENE (60°)5.8 mphClear
10:00 PM30.2 °F17.6 °F60 %29.98 inEast (80°)3.5 mphClear
11:00 PM24.8 °F17.6 °F74 %29.98 inESE (120°)2.3 mphClear
Hourly data recorded from LKKV, located miles away from Cheb, Czech Republic







STORIES FROM OUR PARTNERS